Time,TemperatureF,DewpointF,PressureIn,WindDirection,WindDirectionDegrees,WindSpeedMPH,WindSpeedGustMPH,Humidity,HourlyPrecipIn,Conditions,Clouds,dailyrainin,SoftwareType,DateUTC
2013-07-25 00:01:00,53.4,48.0,29.37,NNE,22,2.0,7.0,82,0.00,,,0.00,Rainwise IP-100,2013-07-25 04:01:00,
2013-07-25 00:06:00,53.2,47.0,29.37,NNW,337,1.0,7.0,83,0.00,,,0.00,Rainwise IP-100,2013-07-25 04:06:00,
2013-07-25 00:11:00,52.9,47.0,29.37,NNW,337,5.0,6.0,83,0.00,,,0.00,Rainwise IP-100,2013-07-25 04:11:00,
2013-07-25 00:16:00,52.7,47.0,29.37,NNW,337,2.0,6.0,83,0.00,,,0.00,Rainwise IP-100,2013-07-25 04:16:00,
2013-07-25 00:21:00,52.5,48.0,29.37,NW,315,1.0,6.0,85,0.00,,,0.00,Rainwise IP-100,2013-07-25 04:21:00,
2013-07-25 00:27:00,52.4,47.0,29.37,WNW,292,4.0,7.0,85,0.00,,,0.00,Rainwise IP-100,2013-07-25 04:27:00,
2013-07-25 00:32:00,52.3,47.0,29.37,North,360,1.0,6.0,85,0.00,,,0.00,Rainwise IP-100,2013-07-25 04:32:00,
2013-07-25 00:37:00,52.2,47.0,29.37,NNW,337,4.0,7.0,85,0.00,,,0.00,Rainwise IP-100,2013-07-25 04:37:00,
2013-07-25 00:42:00,52.2,47.0,29.37,NNW,337,5.0,6.0,85,0.00,,,0.00,Rainwise IP-100,2013-07-25 04:42:00,
2013-07-25 00:47:00,52.1,47.0,29.37,NNW,337,2.0,7.0,85,0.00,,,0.00,Rainwise IP-100,2013-07-25 04:47:00,
2013-07-25 00:52:00,52.0,48.0,29.37,WNW,292,1.0,6.0,86,0.00,,,0.00,Rainwise IP-100,2013-07-25 04:52:00,
2013-07-25 00:57:00,51.7,47.0,29.37,NNW,337,0.0,4.0,85,0.00,,,0.00,Rainwise IP-100,2013-07-25 04:57:00,
2013-07-25 01:03:00,51.3,47.0,29.37,NNW,337,0.0,0.0,87,0.00,,,0.00,Rainwise IP-100,2013-07-25 05:03:00,
2013-07-25 01:08:00,50.9,47.0,29.37,WNW,292,2.0,2.0,88,0.00,,,0.00,Rainwise IP-100,2013-07-25 05:08:00,
2013-07-25 01:13:00,50.9,47.0,29.37,WNW,292,0.0,2.0,88,0.00,,,0.00,Rainwise IP-100,2013-07-25 05:13:00,
2013-07-25 01:18:00,50.8,47.0,29.37,NW,315,0.0,5.0,90,0.00,,,0.00,Rainwise IP-100,2013-07-25 05:18:00,
2013-07-25 01:23:00,50.8,47.0,29.37,West,270,0.0,2.0,89,0.00,,,0.00,Rainwise IP-100,2013-07-25 05:23:00,
2013-07-25 01:28:00,50.8,47.0,29.37,NW,315,2.0,4.0,90,0.00,,,0.00,Rainwise IP-100,2013-07-25 05:28:00,
2013-07-25 01:33:00,50.7,48.0,29.37,NW,315,1.0,6.0,91,0.00,,,0.00,Rainwise IP-100,2013-07-25 05:33:00,
2013-07-25 01:38:00,50.8,47.0,29.36,WSW,247,4.0,6.0,90,0.00,,,0.00,Rainwise IP-100,2013-07-25 05:38:00,
2013-07-25 01:44:00,50.9,48.0,29.36,NNW,337,3.0,5.0,90,0.00,,,0.00,Rainwise IP-100,2013-07-25 05:44:00,
2013-07-25 01:49:00,50.9,48.0,29.36,West,270,0.0,6.0,90,0.00,,,0.00,Rainwise IP-100,2013-07-25 05:49:00,
2013-07-25 01:54:00,50.8,47.0,29.36,NNW,337,0.0,4.0,89,0.00,,,0.00,Rainwise IP-100,2013-07-25 05:54:00,
2013-07-25 01:59:00,50.9,48.0,29.37,NNW,337,1.0,7.0,89,0.00,,,0.00,Rainwise IP-100,2013-07-25 05:59:00,
2013-07-25 02:04:00,50.9,48.0,29.36,NW,315,4.0,6.0,89,0.00,,,0.00,Rainwise IP-100,2013-07-25 06:04:00,
2013-07-25 02:09:00,50.9,47.0,29.36,North,360,4.0,6.0,88,0.00,,,0.00,Rainwise IP-100,2013-07-25 06:09:00,
2013-07-25 02:14:00,50.8,47.0,29.37,WNW,292,2.0,5.0,88,0.00,,,0.00,Rainwise IP-100,2013-07-25 06:14:00,
2013-07-25 02:20:00,50.7,47.0,29.36,WNW,292,4.0,5.0,90,0.00,,,0.00,Rainwise IP-100,2013-07-25 06:20:00,
2013-07-25 02:25:00,50.9,48.0,29.36,West,270,3.0,6.0,89,0.00,,,0.00,Rainwise IP-100,2013-07-25 06:25:00,
2013-07-25 02:30:00,50.8,47.0,29.36,West,270,4.0,6.0,89,0.00,,,0.00,Rainwise IP-100,2013-07-25 06:30:00,
2013-07-25 02:35:00,50.9,48.0,29.36,West,270,2.0,5.0,89,0.00,,,0.00,Rainwise IP-100,2013-07-25 06:35:00,
2013-07-25 02:40:00,50.8,47.0,29.36,NW,315,3.0,5.0,89,0.00,,,0.00,Rainwise IP-100,2013-07-25 06:40:00,
2013-07-25 02:45:00,50.8,47.0,29.35,WNW,292,1.0,6.0,88,0.00,,,0.00,Rainwise IP-100,2013-07-25 06:45:00,
2013-07-25 02:50:00,50.9,47.0,29.35,West,270,2.0,6.0,88,0.00,,,0.00,Rainwise IP-100,2013-07-25 06:50:00,
2013-07-25 02:55:00,50.8,47.0,29.35,NW,315,1.0,6.0,88,0.00,,,0.00,Rainwise IP-100,2013-07-25 06:55:00,
2013-07-25 03:01:00,50.5,47.0,29.36,WNW,292,3.0,5.0,88,0.00,,,0.00,Rainwise IP-100,2013-07-25 07:01:00,
2013-07-25 03:06:00,50.5,47.0,29.36,WNW,292,3.0,5.0,88,0.00,,,0.00,Rainwise IP-100,2013-07-25 07:06:00,
2013-07-25 03:11:00,50.4,47.0,29.36,WSW,247,3.0,7.0,89,0.00,,,0.00,Rainwise IP-100,2013-07-25 07:11:00,
2013-07-25 03:16:00,50.5,47.0,29.36,West,270,2.0,6.0,88,0.00,,,0.00,Rainwise IP-100,2013-07-25 07:16:00,
2013-07-25 03:21:00,50.4,47.0,29.36,WNW,292,2.0,6.0,88,0.00,,,0.00,Rainwise IP-100,2013-07-25 07:21:00,
2013-07-25 03:26:00,50.5,47.0,29.36,WNW,292,5.0,6.0,89,0.00,,,0.00,Rainwise IP-100,2013-07-25 07:26:00,
2013-07-25 03:31:00,50.4,47.0,29.36,West,270,2.0,6.0,88,0.00,,,0.00,Rainwise IP-100,2013-07-25 07:31:00,
2013-07-25 03:36:00,50.4,47.0,29.37,West,270,3.0,6.0,88,0.00,,,0.00,Rainwise IP-100,2013-07-25 07:36:00,
2013-07-25 03:42:00,50.4,47.0,29.37,West,270,3.0,6.0,89,0.00,,,0.00,Rainwise IP-100,2013-07-25 07:42:00,
2013-07-25 03:47:00,50.3,47.0,29.36,West,270,5.0,6.0,89,0.00,,,0.00,Rainwise IP-100,2013-07-25 07:47:00,
2013-07-25 03:52:00,50.3,47.0,29.37,WSW,247,4.0,6.0,88,0.00,,,0.00,Rainwise IP-100,2013-07-25 07:52:00,
2013-07-25 03:57:00,50.3,47.0,29.37,West,270,5.0,6.0,88,0.00,,,0.00,Rainwise IP-100,2013-07-25 07:57:00,
2013-07-25 04:02:00,50.2,47.0,29.37,NNW,337,2.0,6.0,88,0.00,,,0.00,Rainwise IP-100,2013-07-25 08:02:00,
2013-07-25 04:07:00,49.9,47.0,29.37,NNE,22,0.0,3.0,88,0.00,,,0.00,Rainwise IP-100,2013-07-25 08:07:00,
2013-07-25 04:12:00,49.6,47.0,29.37,NE,45,2.0,3.0,90,0.00,,,0.00,Rainwise IP-100,2013-07-25 08:12:00,
2013-07-25 04:18:00,49.3,47.0,29.37,NE,45,2.0,3.0,91,0.00,,,0.00,Rainwise IP-100,2013-07-25 08:18:00,
2013-07-25 04:23:00,48.9,47.0,29.37,NE,45,0.0,3.0,91,0.00,,,0.00,Rainwise IP-100,2013-07-25 08:23:00,
2013-07-25 04:28:00,48.4,46.0,29.37,NE,45,3.0,3.0,90,0.00,,,0.00,Rainwise IP-100,2013-07-25 08:28:00,
2013-07-25 04:33:00,47.9,47.0,29.37,NE,45,2.0,5.0,94,0.00,,,0.00,Rainwise IP-100,2013-07-25 08:33:00,
2013-07-25 04:38:00,47.9,47.0,29.37,NNE,22,1.0,4.0,93,0.00,,,0.00,Rainwise IP-100,2013-07-25 08:38:00,
2013-07-25 04:43:00,47.9,47.0,29.37,NE,45,3.0,6.0,95,0.00,,,0.00,Rainwise IP-100,2013-07-25 08:43:00,
2013-07-25 04:48:00,47.9,47.0,29.37,NE,45,1.0,6.0,94,0.00,,,0.00,Rainwise IP-100,2013-07-25 08:48:00,
2013-07-25 04:53:00,47.8,46.0,29.37,NE,45,2.0,3.0,95,0.00,,,0.00,Rainwise IP-100,2013-07-25 08:53:00,
2013-07-25 04:59:00,47.7,46.0,29.37,NE,45,0.0,3.0,95,0.00,,,0.00,Rainwise IP-100,2013-07-25 08:59:00,
2013-07-25 05:04:00,47.4,46.0,29.37,NE,45,0.0,2.0,94,0.00,,,0.00,Rainwise IP-100,2013-07-25 09:04:00,
2013-07-25 05:09:00,47.1,45.0,29.37,NE,45,0.0,1.0,94,0.00,,,0.00,Rainwise IP-100,2013-07-25 09:09:00,
2013-07-25 05:14:00,46.8,45.0,29.38,NE,45,0.0,0.0,95,0.00,,,0.00,Rainwise IP-100,2013-07-25 09:14:00,
2013-07-25 05:19:00,46.7,46.0,29.38,North,360,1.0,3.0,96,0.00,,,0.00,Rainwise IP-100,2013-07-25 09:19:00,
2013-07-25 05:24:00,46.5,46.0,29.38,North,360,0.0,2.0,96,0.00,,,0.00,Rainwise IP-100,2013-07-25 09:24:00,
2013-07-25 05:29:00,46.5,46.0,29.38,North,360,0.0,0.0,96,0.00,,,0.00,Rainwise IP-100,2013-07-25 09:29:00,
2013-07-25 05:35:00,46.2,45.0,29.38,North,360,0.0,0.0,96,0.00,,,0.00,Rainwise IP-100,2013-07-25 09:35:00,
2013-07-25 05:40:00,45.9,45.0,29.38,North,360,0.0,0.0,97,0.00,,,0.00,Rainwise IP-100,2013-07-25 09:40:00,
2013-07-25 05:45:00,46.1,45.0,29.39,North,360,0.0,0.0,98,0.00,,,0.00,Rainwise IP-100,2013-07-25 09:45:00,
2013-07-25 05:50:00,46.1,45.0,29.39,North,360,0.0,0.0,98,0.00,,,0.00,Rainwise IP-100,2013-07-25 09:50:00,
2013-07-25 05:55:00,46.2,46.0,29.39,North,360,0.0,0.0,99,0.00,,,0.00,Rainwise IP-100,2013-07-25 09:55:00,
2013-07-25 06:00:00,46.2,46.0,29.39,North,360,2.0,2.0,99,0.00,,,0.00,Rainwise IP-100,2013-07-25 10:00:00,
2013-07-25 06:05:00,46.5,47.0,29.39,North,360,0.0,4.0,100,0.00,,,0.00,Rainwise IP-100,2013-07-25 10:05:00,
2013-07-25 06:10:00,46.8,47.0,29.39,North,360,0.0,2.0,100,0.00,,,0.00,Rainwise IP-100,2013-07-25 10:10:00,
2013-07-25 06:16:00,47.3,47.0,29.39,North,360,0.0,3.0,100,0.00,,,0.00,Rainwise IP-100,2013-07-25 10:16:00,
2013-07-25 06:21:00,47.9,48.0,29.39,North,360,3.0,4.0,99,0.00,,,0.00,Rainwise IP-100,2013-07-25 10:21:00,
2013-07-25 06:26:00,48.7,48.0,29.39,NNW,337,1.0,5.0,97,0.00,,,0.00,Rainwise IP-100,2013-07-25 10:26:00,
2013-07-25 06:31:00,49.7,49.0,29.40,NE,45,5.0,5.0,97,0.00,,,0.00,Rainwise IP-100,2013-07-25 10:31:00,
2013-07-25 06:36:00,50.8,50.0,29.40,NE,45,4.0,6.0,96,0.00,,,0.00,Rainwise IP-100,2013-07-25 10:36:00,
2013-07-25 06:41:00,51.6,49.0,29.40,NNW,337,1.0,6.0,91,0.00,,,0.00,Rainwise IP-100,2013-07-25 10:41:00,
2013-07-25 06:46:00,52.2,50.0,29.41,NE,45,3.0,6.0,92,0.00,,,0.00,Rainwise IP-100,2013-07-25 10:46:00,
2013-07-25 06:52:00,52.7,50.0,29.41,NE,45,3.0,5.0,92,0.00,,,0.00,Rainwise IP-100,2013-07-25 10:52:00,
2013-07-25 06:57:00,53.2,50.0,29.41,ENE,67,1.0,6.0,89,0.00,,,0.00,Rainwise IP-100,2013-07-25 10:57:00,
2013-07-25 07:02:00,53.8,50.0,29.41,NE,45,4.0,5.0,89,0.00,,,0.00,Rainwise IP-100,2013-07-25 11:02:00,
2013-07-25 07:07:00,54.3,50.0,29.41,ENE,67,2.0,6.0,87,0.00,,,0.00,Rainwise IP-100,2013-07-25 11:07:00,
2013-07-25 07:12:00,54.8,50.0,29.42,NE,45,4.0,7.0,84,0.00,,,0.00,Rainwise IP-100,2013-07-25 11:12:00,
2013-07-25 07:17:00,55.3,50.0,29.42,NNE,22,2.0,7.0,82,0.00,,,0.00,Rainwise IP-100,2013-07-25 11:17:00,
2013-07-25 07:22:00,56.2,49.0,29.43,ENE,67,3.0,9.0,78,0.00,,,0.00,Rainwise IP-100,2013-07-25 11:22:00,
2013-07-25 07:27:00,56.6,50.0,29.43,NE,45,7.0,9.0,78,0.00,,,0.00,Rainwise IP-100,2013-07-25 11:27:00,
2013-07-25 07:33:00,57.1,50.0,29.43,NE,45,4.0,9.0,76,0.00,,,0.00,Rainwise IP-100,2013-07-25 11:33:00,
2013-07-25 07:38:00,57.5,50.0,29.44,NNW,337,3.0,7.0,76,0.00,,,0.00,Rainwise IP-100,2013-07-25 11:38:00,
2013-07-25 07:43:00,57.7,50.0,29.44,NNE,22,5.0,9.0,75,0.00,,,0.00,Rainwise IP-100,2013-07-25 11:43:00,
2013-07-25 07:48:00,58.1,50.0,29.44,NNW,337,6.0,9.0,73,0.00,,,0.00,Rainwise IP-100,2013-07-25 11:48:00,
2013-07-25 07:53:00,58.1,50.0,29.45,NW,315,4.0,9.0,75,0.00,,,0.00,Rainwise IP-100,2013-07-25 11:53:00,
2013-07-25 07:58:00,58.6,50.0,29.45,NW,315,4.0,8.0,73,0.00,,,0.00,Rainwise IP-100,2013-07-25 11:58:00,
2013-07-25 08:03:00,58.6,49.0,29.45,WNW,292,5.0,0.0,70,0.00,,,0.00,Rainwise IP-100,2013-07-25 12:03:00,
2013-07-25 08:09:00,59.1,50.0,29.45,WNW,292,7.0,7.0,71,0.00,,,0.00,Rainwise IP-100,2013-07-25 12:09:00,
2013-07-25 08:14:00,59.6,51.0,29.45,NW,315,6.0,8.0,74,0.00,,,0.00,Rainwise IP-100,2013-07-25 12:14:00,
2013-07-25 08:19:00,60.3,50.0,29.45,NNE,22,2.0,8.0,72,0.00,,,0.00,Rainwise IP-100,2013-07-25 12:19:00,
2013-07-25 08:24:00,60.5,50.0,29.46,ENE,67,3.0,9.0,69,0.00,,,0.00,Rainwise IP-100,2013-07-25 12:24:00,
2013-07-25 08:29:00,60.4,50.0,29.47,NNE,22,5.0,0.0,69,0.00,,,0.00,Rainwise IP-100,2013-07-25 12:29:00,
2013-07-25 08:34:00,59.8,50.0,29.47,North,360,4.0,0.0,70,0.00,,,0.00,Rainwise IP-100,2013-07-25 12:34:00,
2013-07-25 08:39:00,58.7,50.0,29.46,NNE,22,1.0,0.0,71,0.00,,,0.00,Rainwise IP-100,2013-07-25 12:39:00,
2013-07-25 08:44:00,58.7,50.0,29.47,NE,45,5.0,8.0,73,0.00,,,0.00,Rainwise IP-100,2013-07-25 12:44:00,
2013-07-25 08:50:00,59.6,51.0,29.46,NNE,22,4.0,9.0,74,0.00,,,0.00,Rainwise IP-100,2013-07-25 12:50:00,
2013-07-25 08:55:00,60.4,51.0,29.47,North,360,1.0,9.0,72,0.00,,,0.00,Rainwise IP-100,2013-07-25 12:55:00,
2013-07-25 09:00:00,61.3,51.0,29.47,NW,315,6.0,8.0,70,0.00,,,0.00,Rainwise IP-100,2013-07-25 13:00:00,
2013-07-25 09:05:00,60.8,50.0,29.47,ENE,67,4.0,7.0,69,0.00,,,0.00,Rainwise IP-100,2013-07-25 13:05:00,
2013-07-25 09:10:00,60.6,51.0,29.47,NNE,22,3.0,7.0,71,0.00,,,0.00,Rainwise IP-100,2013-07-25 13:10:00,
2013-07-25 09:15:00,60.6,50.0,29.47,NW,315,6.0,0.0,70,0.00,,,0.00,Rainwise IP-100,2013-07-25 13:15:00,
2013-07-25 09:20:00,60.4,51.0,29.47,NE,45,4.0,9.0,72,0.00,,,0.00,Rainwise IP-100,2013-07-25 13:20:00,
2013-07-25 09:26:00,60.6,52.0,29.47,NNE,22,6.0,7.0,74,0.00,,,0.00,Rainwise IP-100,2013-07-25 13:26:00,
2013-07-25 09:31:00,60.9,52.0,29.47,WNW,292,3.0,8.0,72,0.00,,,0.00,Rainwise IP-100,2013-07-25 13:31:00,
2013-07-25 09:36:00,61.1,51.0,29.47,NE,45,3.0,7.0,70,0.00,,,0.00,Rainwise IP-100,2013-07-25 13:36:00,
2013-07-25 09:41:00,61.1,52.0,29.47,WSW,247,1.0,9.0,72,0.00,,,0.00,Rainwise IP-100,2013-07-25 13:41:00,
2013-07-25 09:46:00,61.3,52.0,29.48,NNE,22,2.0,7.0,72,0.00,,,0.00,Rainwise IP-100,2013-07-25 13:46:00,
2013-07-25 09:51:00,61.3,52.0,29.48,NE,45,3.0,7.0,72,0.00,,,0.00,Rainwise IP-100,2013-07-25 13:51:00,
2013-07-25 09:56:00,61.8,52.0,29.48,ENE,67,3.0,7.0,71,0.00,,,0.00,Rainwise IP-100,2013-07-25 13:56:00,
2013-07-25 10:01:00,61.9,53.0,29.48,NNE,22,4.0,7.0,71,0.00,,,0.00,Rainwise IP-100,2013-07-25 14:01:00,
2013-07-25 10:07:00,62.5,52.0,29.48,NNE,22,4.0,8.0,68,0.00,,,0.00,Rainwise IP-100,2013-07-25 14:07:00,
2013-07-25 10:12:00,62.9,53.0,29.48,NE,45,4.0,9.0,70,0.00,,,0.00,Rainwise IP-100,2013-07-25 14:12:00,
2013-07-25 10:17:00,62.9,51.0,29.48,ENE,67,5.0,8.0,66,0.00,,,0.00,Rainwise IP-100,2013-07-25 14:17:00,
2013-07-25 10:22:00,62.4,52.0,29.48,NE,45,7.0,7.0,68,0.00,,,0.00,Rainwise IP-100,2013-07-25 14:22:00,
2013-07-25 10:27:00,62.6,52.0,29.48,WNW,292,2.0,7.0,69,0.00,,,0.00,Rainwise IP-100,2013-07-25 14:27:00,
2013-07-25 10:32:00,62.9,52.0,29.47,NNE,22,5.0,7.0,68,0.00,,,0.00,Rainwise IP-100,2013-07-25 14:32:00,
2013-07-25 10:37:00,63.1,53.0,29.48,North,360,0.0,7.0,69,0.00,,,0.00,Rainwise IP-100,2013-07-25 14:37:00,
2013-07-25 10:43:00,63.9,54.0,29.48,NE,45,3.0,7.0,70,0.00,,,0.00,Rainwise IP-100,2013-07-25 14:43:00,
2013-07-25 10:48:00,64.6,53.0,29.47,NE,45,5.0,7.0,68,0.00,,,0.00,Rainwise IP-100,2013-07-25 14:48:00,
2013-07-25 10:53:00,65.6,54.0,29.48,North,360,5.0,6.0,69,0.00,,,0.00,Rainwise IP-100,2013-07-25 14:53:00,
2013-07-25 10:58:00,66.3,54.0,29.48,North,360,1.0,8.0,65,0.00,,,0.00,Rainwise IP-100,2013-07-25 14:58:00,
2013-07-25 11:03:00,66.6,54.0,29.48,NNE,22,0.0,8.0,65,0.00,,,0.00,Rainwise IP-100,2013-07-25 15:03:00,
2013-07-25 11:08:00,66.6,53.0,29.48,NW,315,6.0,8.0,62,0.00,,,0.00,Rainwise IP-100,2013-07-25 15:08:00,
2013-07-25 11:13:00,66.3,53.0,29.48,NNW,337,3.0,7.0,61,0.00,,,0.00,Rainwise IP-100,2013-07-25 15:13:00,
2013-07-25 11:18:00,65.7,53.0,29.49,NNW,337,0.0,8.0,65,0.00,,,0.00,Rainwise IP-100,2013-07-25 15:18:00,
2013-07-25 11:24:00,66.1,53.0,29.48,West,270,0.0,7.0,62,0.00,,,0.00,Rainwise IP-100,2013-07-25 15:24:00,
2013-07-25 11:29:00,67.1,54.0,29.49,ESE,112,4.0,9.0,64,0.00,,,0.00,Rainwise IP-100,2013-07-25 15:29:00,
2013-07-25 11:34:00,67.1,54.0,29.49,ENE,67,1.0,7.0,64,0.00,,,0.00,Rainwise IP-100,2013-07-25 15:34:00,
2013-07-25 11:39:00,67.4,54.0,29.50,SSE,157,6.0,6.0,62,0.00,,,0.00,Rainwise IP-100,2013-07-25 15:39:00,
2013-07-25 11:44:00,67.9,54.0,29.50,NNW,337,0.0,6.0,62,0.00,,,0.00,Rainwise IP-100,2013-07-25 15:44:00,
2013-07-25 11:49:00,67.2,53.0,29.50,NNW,337,2.0,8.0,61,0.00,,,0.00,Rainwise IP-100,2013-07-25 15:49:00,
2013-07-25 11:54:00,67.9,54.0,29.50,ENE,67,2.0,6.0,63,0.00,,,0.00,Rainwise IP-100,2013-07-25 15:54:00,
2013-07-25 12:00:00,68.4,55.0,29.49,ESE,112,5.0,6.0,63,0.00,,,0.00,Rainwise IP-100,2013-07-25 16:00:00,
2013-07-25 12:05:00,68.6,54.0,29.49,ENE,67,5.0,8.0,60,0.00,,,0.00,Rainwise IP-100,2013-07-25 16:05:00,
2013-07-25 12:10:00,69.1,56.0,29.49,ENE,67,0.0,6.0,65,0.00,,,0.00,Rainwise IP-100,2013-07-25 16:10:00,
2013-07-25 12:15:00,69.5,54.0,29.49,NE,45,3.0,9.0,59,0.00,,,0.00,Rainwise IP-100,2013-07-25 16:15:00,
2013-07-25 12:20:00,70.1,57.0,29.49,ENE,67,5.0,7.0,63,0.00,,,0.00,Rainwise IP-100,2013-07-25 16:20:00,
2013-07-25 12:25:00,69.9,56.0,29.49,ENE,67,0.0,8.0,61,0.00,,,0.00,Rainwise IP-100,2013-07-25 16:25:00,
2013-07-25 12:30:00,70.8,56.0,29.49,NE,45,2.0,6.0,61,0.00,,,0.00,Rainwise IP-100,2013-07-25 16:30:00,
2013-07-25 12:35:00,70.0,53.0,29.49,ESE,112,0.0,9.0,56,0.00,,,0.00,Rainwise IP-100,2013-07-25 16:35:00,
2013-07-25 12:41:00,70.4,56.0,29.49,NE,45,2.0,7.0,61,0.00,,,0.00,Rainwise IP-100,2013-07-25 16:41:00,
2013-07-25 12:46:00,70.5,55.0,29.49,East,90,1.0,7.0,58,0.00,,,0.00,Rainwise IP-100,2013-07-25 16:46:00,
2013-07-25 12:51:00,71.1,55.0,29.49,NNW,337,4.0,4.0,58,0.00,,,0.00,Rainwise IP-100,2013-07-25 16:51:00,
2013-07-25 12:56:00,70.1,55.0,29.49,WNW,292,7.0,8.0,60,0.00,,,0.00,Rainwise IP-100,2013-07-25 16:56:00,
2013-07-25 13:01:00,69.6,54.0,29.49,West,270,3.0,8.0,59,0.00,,,0.00,Rainwise IP-100,2013-07-25 17:01:00,
2013-07-25 13:06:00,69.7,54.0,29.48,West,270,3.0,6.0,59,0.00,,,0.00,Rainwise IP-100,2013-07-25 17:06:00,
2013-07-25 13:11:00,69.8,56.0,29.48,NNE,22,3.0,9.0,61,0.00,,,0.00,Rainwise IP-100,2013-07-25 17:11:00,
2013-07-25 13:17:00,70.3,56.0,29.48,SW,225,4.0,6.0,62,0.00,,,0.00,Rainwise IP-100,2013-07-25 17:17:00,
2013-07-25 13:22:00,70.9,55.0,29.49,SW,225,5.0,6.0,58,0.00,,,0.00,Rainwise IP-100,2013-07-25 17:22:00,
2013-07-25 13:27:00,71.6,57.0,29.49,East,90,4.0,5.0,61,0.00,,,0.00,Rainwise IP-100,2013-07-25 17:27:00,
2013-07-25 13:32:00,71.1,56.0,29.49,North,360,0.0,7.0,61,0.00,,,0.00,Rainwise IP-100,2013-07-25 17:32:00,
2013-07-25 13:37:00,71.4,56.0,29.49,WNW,292,5.0,6.0,58,0.00,,,0.00,Rainwise IP-100,2013-07-25 17:37:00,
2013-07-25 13:42:00,71.4,57.0,29.49,NE,45,1.0,7.0,61,0.00,,,0.00,Rainwise IP-100,2013-07-25 17:42:00,
2013-07-25 13:47:00,71.4,57.0,29.49,West,270,4.0,6.0,61,0.00,,,0.00,Rainwise IP-100,2013-07-25 17:47:00,
2013-07-25 13:52:00,71.9,57.0,29.49,ENE,67,3.0,6.0,61,0.00,,,0.00,Rainwise IP-100,2013-07-25 17:52:00,
2013-07-25 13:58:00,72.3,57.0,29.49,NW,315,4.0,6.0,60,0.00,,,0.00,Rainwise IP-100,2013-07-25 17:58:00,
2013-07-25 14:03:00,71.7,54.0,29.49,West,270,3.0,8.0,55,0.00,,,0.00,Rainwise IP-100,2013-07-25 18:03:00,
2013-07-25 14:08:00,71.3,56.0,29.49,ESE,112,3.0,7.0,60,0.00,,,0.00,Rainwise IP-100,2013-07-25 18:08:00,
2013-07-25 14:13:00,71.1,57.0,29.49,ENE,67,3.0,7.0,62,0.00,,,0.00,Rainwise IP-100,2013-07-25 18:13:00,
2013-07-25 14:18:00,71.3,58.0,29.48,SW,225,2.0,4.0,63,0.00,,,0.00,Rainwise IP-100,2013-07-25 18:18:00,
2013-07-25 14:23:00,71.7,57.0,29.49,South,180,0.0,5.0,62,0.00,,,0.00,Rainwise IP-100,2013-07-25 18:23:00,
2013-07-25 14:28:00,71.6,58.0,29.48,SSE,157,0.0,3.0,63,0.00,,,0.00,Rainwise IP-100,2013-07-25 18:28:00,
2013-07-25 14:34:00,71.4,57.0,29.48,East,90,4.0,5.0,61,0.00,,,0.00,Rainwise IP-100,2013-07-25 18:34:00,
2013-07-25 14:39:00,71.0,58.0,29.47,ENE,67,2.0,6.0,65,0.00,,,0.00,Rainwise IP-100,2013-07-25 18:39:00,
2013-07-25 14:44:00,71.0,58.0,29.48,ESE,112,3.0,6.0,65,0.00,,,0.00,Rainwise IP-100,2013-07-25 18:44:00,
2013-07-25 14:49:00,71.3,59.0,29.48,East,90,3.0,5.0,65,0.00,,,0.00,Rainwise IP-100,2013-07-25 18:49:00,
2013-07-25 14:54:00,71.4,58.0,29.48,NNW,337,3.0,4.0,63,0.00,,,0.00,Rainwise IP-100,2013-07-25 18:54:00,
2013-07-25 14:59:00,71.8,57.0,29.49,NNW,337,0.0,4.0,61,0.00,,,0.00,Rainwise IP-100,2013-07-25 18:59:00,
2013-07-25 15:04:00,71.3,56.0,29.49,NNE,22,0.0,7.0,60,0.00,,,0.00,Rainwise IP-100,2013-07-25 19:04:00,
2013-07-25 15:09:00,71.3,58.0,29.48,NNE,22,0.0,5.0,63,0.00,,,0.00,Rainwise IP-100,2013-07-25 19:09:00,
2013-07-25 15:15:00,71.3,58.0,29.48,North,360,0.0,5.0,63,0.00,,,0.00,Rainwise IP-100,2013-07-25 19:15:00,
2013-07-25 15:20:00,70.9,56.0,29.48,NE,45,3.0,6.0,61,0.00,,,0.00,Rainwise IP-100,2013-07-25 19:20:00,
2013-07-25 15:25:00,70.6,58.0,29.48,ENE,67,3.0,6.0,65,0.00,,,0.00,Rainwise IP-100,2013-07-25 19:25:00,
2013-07-25 15:30:00,70.5,57.0,29.48,ENE,67,6.0,7.0,64,0.00,,,0.00,Rainwise IP-100,2013-07-25 19:30:00,
2013-07-25 15:35:00,70.5,57.0,29.48,ESE,112,4.0,7.0,64,0.00,,,0.00,Rainwise IP-100,2013-07-25 19:35:00,
2013-07-25 15:40:00,70.4,58.0,29.48,East,90,2.0,7.0,65,0.00,,,0.00,Rainwise IP-100,2013-07-25 19:40:00,
2013-07-25 15:45:00,70.6,57.0,29.48,NE,45,2.0,6.0,64,0.00,,,0.00,Rainwise IP-100,2013-07-25 19:45:00,
2013-07-25 15:51:00,71.3,60.0,29.48,NE,45,0.0,3.0,68,0.00,,,0.00,Rainwise IP-100,2013-07-25 19:51:00,
2013-07-25 15:56:00,71.7,59.0,29.48,NE,45,2.0,4.0,64,0.00,,,0.00,Rainwise IP-100,2013-07-25 19:56:00,
2013-07-25 16:01:00,71.8,59.0,29.47,East,90,2.0,4.0,64,0.00,,,0.00,Rainwise IP-100,2013-07-25 20:01:00,
2013-07-25 16:06:00,71.2,59.0,29.47,East,90,4.0,6.0,65,0.00,,,0.00,Rainwise IP-100,2013-07-25 20:06:00,
2013-07-25 16:11:00,70.3,57.0,29.47,ENE,67,0.0,6.0,64,0.00,,,0.00,Rainwise IP-100,2013-07-25 20:11:00,
2013-07-25 16:16:00,70.6,59.0,29.47,ENE,67,2.0,3.0,66,0.00,,,0.00,Rainwise IP-100,2013-07-25 20:16:00,
2013-07-25 16:21:00,70.6,58.0,29.48,SE,135,0.0,5.0,65,0.00,,,0.00,Rainwise IP-100,2013-07-25 20:21:00,
2013-07-25 16:26:00,70.8,58.0,29.48,NE,45,2.0,5.0,65,0.00,,,0.00,Rainwise IP-100,2013-07-25 20:26:00,
2013-07-25 16:32:00,70.7,58.0,29.48,NNE,22,3.0,6.0,65,0.00,,,0.00,Rainwise IP-100,2013-07-25 20:32:00,
2013-07-25 16:37:00,70.3,57.0,29.47,North,360,1.0,5.0,65,0.00,,,0.00,Rainwise IP-100,2013-07-25 20:37:00,
2013-07-25 16:42:00,70.1,58.0,29.47,NE,45,0.0,6.0,66,0.00,,,0.00,Rainwise IP-100,2013-07-25 20:42:00,
2013-07-25 16:47:00,69.9,59.0,29.47,NNE,22,3.0,6.0,68,0.00,,,0.00,Rainwise IP-100,2013-07-25 20:47:00,
2013-07-25 16:52:00,69.6,59.0,29.47,ENE,67,3.0,4.0,68,0.00,,,0.00,Rainwise IP-100,2013-07-25 20:52:00,
2013-07-25 16:57:00,69.5,59.0,29.47,NNW,337,3.0,4.0,70,0.00,,,0.00,Rainwise IP-100,2013-07-25 20:57:00,
2013-07-25 17:02:00,69.5,59.0,29.47,East,90,1.0,4.0,70,0.00,,,0.00,Rainwise IP-100,2013-07-25 21:02:00,
2013-07-25 17:08:00,69.3,59.0,29.47,NE,45,0.0,4.0,70,0.00,,,0.00,Rainwise IP-100,2013-07-25 21:08:00,
2013-07-25 17:13:00,69.2,59.0,29.47,NE,45,2.0,3.0,70,0.00,,,0.00,Rainwise IP-100,2013-07-25 21:13:00,
2013-07-25 17:18:00,69.2,59.0,29.47,NE,45,2.0,2.0,71,0.00,,,0.00,Rainwise IP-100,2013-07-25 21:18:00,
2013-07-25 17:23:00,69.1,59.0,29.47,NE,45,4.0,4.0,71,0.00,,,0.00,Rainwise IP-100,2013-07-25 21:23:00,
2013-07-25 17:28:00,68.9,59.0,29.47,NE,45,2.0,4.0,71,0.00,,,0.00,Rainwise IP-100,2013-07-25 21:28:00,
2013-07-25 17:33:00,68.9,59.0,29.47,NE,45,0.0,2.0,71,0.00,,,0.00,Rainwise IP-100,2013-07-25 21:33:00,
2013-07-25 17:38:00,69.0,59.0,29.47,NE,45,2.0,3.0,72,0.00,,,0.00,Rainwise IP-100,2013-07-25 21:38:00,
2013-07-25 17:43:00,68.9,60.0,29.47,NE,45,3.0,4.0,73,0.00,,,0.00,Rainwise IP-100,2013-07-25 21:43:00,
2013-07-25 17:49:00,68.9,60.0,29.47,NE,45,2.0,4.0,73,0.00,,,0.00,Rainwise IP-100,2013-07-25 21:49:00,
2013-07-25 17:54:00,69.0,60.0,29.47,ENE,67,3.0,3.0,73,0.00,,,0.00,Rainwise IP-100,2013-07-25 21:54:00,
2013-07-25 17:59:00,68.9,60.0,29.47,NE,45,2.0,6.0,73,0.00,,,0.00,Rainwise IP-100,2013-07-25 21:59:00,
2013-07-25 18:04:00,69.0,60.0,29.47,NE,45,2.0,4.0,73,0.00,,,0.00,Rainwise IP-100,2013-07-25 22:04:00,
2013-07-25 18:09:00,68.9,59.0,29.47,NNE,22,0.0,6.0,72,0.00,,,0.00,Rainwise IP-100,2013-07-25 22:09:00,
2013-07-25 18:14:00,68.6,59.0,29.47,NNE,22,1.0,4.0,72,0.00,,,0.00,Rainwise IP-100,2013-07-25 22:14:00,
2013-07-25 18:19:00,68.4,59.0,29.47,NNE,22,0.0,3.0,73,0.00,,,0.00,Rainwise IP-100,2013-07-25 22:19:00,
2013-07-25 18:25:00,67.9,59.0,29.47,NNE,22,0.0,3.0,74,0.00,,,0.00,Rainwise IP-100,2013-07-25 22:25:00,
2013-07-25 18:30:00,67.7,59.0,29.47,NNE,22,0.0,3.0,75,0.00,,,0.00,Rainwise IP-100,2013-07-25 22:30:00,
2013-07-25 18:35:00,67.5,59.0,29.47,NNE,22,0.0,2.0,75,0.00,,,0.00,Rainwise IP-100,2013-07-25 22:35:00,
2013-07-25 18:40:00,67.3,59.0,29.47,NNE,22,0.0,2.0,75,0.00,,,0.00,Rainwise IP-100,2013-07-25 22:40:00,
2013-07-25 18:45:00,67.0,59.0,29.47,NNE,22,0.0,2.0,76,0.00,,,0.00,Rainwise IP-100,2013-07-25 22:45:00,
2013-07-25 18:50:00,66.8,59.0,29.47,NNE,22,0.0,1.0,78,0.00,,,0.00,Rainwise IP-100,2013-07-25 22:50:00,
2013-07-25 18:55:00,66.6,60.0,29.47,NNE,22,0.0,0.0,80,0.00,,,0.00,Rainwise IP-100,2013-07-25 22:55:00,
2013-07-25 19:00:00,66.4,60.0,29.48,NNE,22,1.0,1.0,81,0.00,,,0.00,Rainwise IP-100,2013-07-25 23:00:00,
2013-07-25 19:06:00,66.2,60.0,29.47,NE,45,0.0,3.0,80,0.00,,,0.00,Rainwise IP-100,2013-07-25 23:06:00,
2013-07-25 19:11:00,66.0,59.0,29.48,NNE,22,0.0,2.0,80,0.00,,,0.00,Rainwise IP-100,2013-07-25 23:11:00,
2013-07-25 19:16:00,65.9,59.0,29.47,NNE,22,0.0,0.0,79,0.00,,,0.00,Rainwise IP-100,2013-07-25 23:16:00,
2013-07-25 19:21:00,65.7,59.0,29.48,NNE,22,0.0,0.0,80,0.00,,,0.00,Rainwise IP-100,2013-07-25 23:21:00,
2013-07-25 19:26:00,65.5,59.0,29.47,NNE,22,1.0,2.0,81,0.00,,,0.00,Rainwise IP-100,2013-07-25 23:26:00,
2013-07-25 19:31:00,65.4,59.0,29.48,NNE,22,0.0,1.0,81,0.00,,,0.00,Rainwise IP-100,2013-07-25 23:31:00,
2013-07-25 19:36:00,65.2,59.0,29.47,NNE,22,0.0,2.0,82,0.00,,,0.00,Rainwise IP-100,2013-07-25 23:36:00,
2013-07-25 19:42:00,64.9,60.0,29.48,North,360,0.0,7.0,85,0.00,,,0.00,Rainwise IP-100,2013-07-25 23:42:00,
2013-07-25 19:47:00,65.0,60.0,29.48,NNE,22,0.0,4.0,85,0.00,,,0.00,Rainwise IP-100,2013-07-25 23:47:00,
2013-07-25 19:52:00,64.8,60.0,29.48,NNE,22,0.0,1.0,85,0.00,,,0.00,Rainwise IP-100,2013-07-25 23:52:00,
2013-07-25 19:57:00,64.6,60.0,29.48,NNE,22,0.0,0.0,85,0.00,,,0.00,Rainwise IP-100,2013-07-25 23:57:00,
2013-07-25 20:02:00,64.4,60.0,29.48,NNE,22,0.0,0.0,86,0.00,,,0.00,Rainwise IP-100,2013-07-26 00:02:00,
2013-07-25 20:07:00,64.1,60.0,29.48,NNE,22,0.0,0.0,87,0.00,,,0.00,Rainwise IP-100,2013-07-26 00:07:00,
2013-07-25 20:12:00,64.0,60.0,29.48,NNE,22,0.0,0.0,88,0.00,,,0.00,Rainwise IP-100,2013-07-26 00:12:00,
2013-07-25 20:17:00,63.9,60.0,29.47,NNE,22,0.0,0.0,88,0.00,,,0.00,Rainwise IP-100,2013-07-26 00:17:00,
2013-07-25 20:23:00,63.8,60.0,29.48,NNE,22,0.0,0.0,88,0.00,,,0.00,Rainwise IP-100,2013-07-26 00:23:00,
2013-07-25 20:28:00,63.7,60.0,29.48,WSW,247,1.0,3.0,90,0.00,,,0.00,Rainwise IP-100,2013-07-26 00:28:00,
2013-07-25 20:33:00,63.6,60.0,29.48,WSW,247,0.0,2.0,89,0.00,,,0.00,Rainwise IP-100,2013-07-26 00:33:00,
2013-07-25 20:38:00,63.4,59.0,29.48,WSW,247,0.0,0.0,87,0.00,,,0.00,Rainwise IP-100,2013-07-26 00:38:00,
2013-07-25 20:43:00,63.3,59.0,29.48,WSW,247,0.0,0.0,88,0.00,,,0.00,Rainwise IP-100,2013-07-26 00:43:00,
2013-07-25 20:48:00,63.1,60.0,29.48,WSW,247,0.0,0.0,89,0.00,,,0.00,Rainwise IP-100,2013-07-26 00:48:00,
2013-07-25 20:53:00,62.9,60.0,29.48,WSW,247,0.0,0.0,89,0.00,,,0.00,Rainwise IP-100,2013-07-26 00:53:00,
2013-07-25 20:59:00,62.8,59.0,29.48,WSW,247,1.0,1.0,90,0.00,,,0.00,Rainwise IP-100,2013-07-26 00:59:00,
2013-07-25 21:04:00,62.7,59.0,29.48,WSW,247,0.0,2.0,90,0.00,,,0.00,Rainwise IP-100,2013-07-26 01:04:00,
2013-07-25 21:09:00,62.6,59.0,29.48,WSW,247,0.0,0.0,90,0.00,,,0.00,Rainwise IP-100,2013-07-26 01:09:00,
2013-07-25 21:14:00,62.4,59.0,29.48,WSW,247,0.0,0.0,90,0.00,,,0.00,Rainwise IP-100,2013-07-26 01:14:00,
2013-07-25 21:19:00,62.3,59.0,29.47,WSW,247,0.0,0.0,89,0.00,,,0.00,Rainwise IP-100,2013-07-26 01:19:00,
2013-07-25 21:24:00,62.1,59.0,29.47,WSW,247,0.0,0.0,90,0.00,,,0.00,Rainwise IP-100,2013-07-26 01:24:00,
2013-07-25 21:29:00,62.2,58.0,29.47,WSW,247,0.0,0.0,88,0.00,,,0.00,Rainwise IP-100,2013-07-26 01:29:00,
2013-07-25 21:34:00,62.2,59.0,29.47,WSW,247,0.0,2.0,90,0.00,,,0.00,Rainwise IP-100,2013-07-26 01:34:00,
2013-07-25 21:40:00,62.1,59.0,29.47,WSW,247,0.0,2.0,90,0.00,,,0.00,Rainwise IP-100,2013-07-26 01:40:00,
2013-07-25 21:45:00,62.0,59.0,29.47,WSW,247,0.0,0.0,89,0.00,,,0.00,Rainwise IP-100,2013-07-26 01:45:00,
2013-07-25 21:50:00,61.7,59.0,29.47,WSW,247,4.0,4.0,92,0.00,,,0.00,Rainwise IP-100,2013-07-26 01:50:00,
2013-07-25 21:55:00,61.7,59.0,29.47,WSW,247,3.0,4.0,93,0.00,,,0.00,Rainwise IP-100,2013-07-26 01:55:00,
2013-07-25 22:00:00,61.7,59.0,29.47,WSW,247,3.0,5.0,92,0.00,,,0.00,Rainwise IP-100,2013-07-26 02:00:00,
2013-07-25 22:05:00,61.7,59.0,29.47,WSW,247,0.0,4.0,92,0.00,,,0.00,Rainwise IP-100,2013-07-26 02:05:00,
2013-07-25 22:10:00,61.6,59.0,29.47,WSW,247,0.0,0.0,91,0.00,,,0.00,Rainwise IP-100,2013-07-26 02:10:00,
2013-07-25 22:16:00,61.5,59.0,29.47,WSW,247,0.0,0.0,91,0.00,,,0.00,Rainwise IP-100,2013-07-26 02:16:00,
2013-07-25 22:21:00,61.3,58.0,29.47,WSW,247,0.0,0.0,90,0.00,,,0.00,Rainwise IP-100,2013-07-26 02:21:00,
2013-07-25 22:26:00,61.1,59.0,29.47,WSW,247,0.0,0.0,92,0.00,,,0.00,Rainwise IP-100,2013-07-26 02:26:00,
2013-07-25 22:31:00,61.1,59.0,29.47,WSW,247,4.0,4.0,94,0.00,,,0.00,Rainwise IP-100,2013-07-26 02:31:00,
2013-07-25 22:36:00,61.1,59.0,29.47,WSW,247,2.0,5.0,94,0.00,,,0.00,Rainwise IP-100,2013-07-26 02:36:00,
2013-07-25 22:41:00,61.1,59.0,29.47,WSW,247,0.0,3.0,94,0.00,,,0.00,Rainwise IP-100,2013-07-26 02:41:00,
2013-07-25 22:46:00,60.9,59.0,29.47,WSW,247,0.0,3.0,93,0.00,,,0.00,Rainwise IP-100,2013-07-26 02:46:00,
2013-07-25 22:51:00,60.9,59.0,29.47,WSW,247,0.0,2.0,92,0.00,,,0.00,Rainwise IP-100,2013-07-26 02:51:00,
2013-07-25 22:57:00,60.9,59.0,29.47,WSW,247,0.0,0.0,92,0.00,,,0.00,Rainwise IP-100,2013-07-26 02:57:00,
2013-07-25 23:02:00,60.8,58.0,29.47,WSW,247,0.0,1.0,92,0.00,,,0.00,Rainwise IP-100,2013-07-26 03:02:00,
2013-07-25 23:07:00,60.9,59.0,29.47,WSW,247,0.0,0.0,92,0.00,,,0.00,Rainwise IP-100,2013-07-26 03:07:00,
2013-07-25 23:12:00,60.7,58.0,29.46,WSW,247,0.0,0.0,92,0.00,,,0.00,Rainwise IP-100,2013-07-26 03:12:00,
2013-07-25 23:17:00,60.6,58.0,29.46,NW,315,1.0,2.0,92,0.00,,,0.00,Rainwise IP-100,2013-07-26 03:17:00,
2013-07-25 23:22:00,60.7,58.0,29.46,NNW,337,2.0,3.0,92,0.00,,,0.00,Rainwise IP-100,2013-07-26 03:22:00,
2013-07-25 23:27:00,60.6,59.0,29.46,NNW,337,0.0,2.0,94,0.00,,,0.00,Rainwise IP-100,2013-07-26 03:27:00,
2013-07-25 23:33:00,60.6,58.0,29.45,NNW,337,1.0,4.0,93,0.00,,,0.00,Rainwise IP-100,2013-07-26 03:33:00,
2013-07-25 23:38:00,60.6,58.0,29.45,NNW,337,0.0,2.0,92,0.00,,,0.00,Rainwise IP-100,2013-07-26 03:38:00,
2013-07-25 23:43:00,60.5,58.0,29.45,NE,45,0.0,4.0,92,0.00,,,0.00,Rainwise IP-100,2013-07-26 03:43:00,
2013-07-25 23:48:00,60.6,58.0,29.45,NW,315,2.0,3.0,93,0.00,,,0.00,Rainwise IP-100,2013-07-26 03:48:00,
2013-07-25 23:53:00,60.7,59.0,29.45,WNW,292,2.0,5.0,94,0.00,,,0.00,Rainwise IP-100,2013-07-26 03:53:00,
2013-07-25 23:58:00,60.8,59.0,29.45,NW,315,0.0,4.0,94,0.00,,,0.00,Rainwise IP-100,2013-07-26 03:58:00,